User: anonymous   Login
Location: Caltech
(34.1382°N, 118.1253°W)
Time: 19:18:47
(UTC-07:00)
Language:

Cosmos 2237 Rocket - Orbit

View from above orbital plane
View from above orbital plane
View from above satellite
View from above satellite

Ground track
Ground track

The orbit data is extracted from the following two-line orbital elements,

1 22566U 93016B   17234.58938465 -.00000139 +00000-0 -47404-4 0  9993
2 22566 071.0077 287.5437 0009413 019.1105 341.0369 14.14952739260655
Epoch (UTC): 22 August 2017 14:08:42
Eccentricity: 0.0009413
inclination: 71.0077°
perigee height: 835 km
apogee height: 849 km
right ascension of ascending node: 287.5437°
argument of perigee: 19.1105°
revolutions per day: 14.14952739
mean anomaly at epoch: 341.0369°
orbit number at epoch: 26065

The dashed part of the orbit path shows where the satellite is in the earth's shadow,  

DLR